Miscellaneous Local Product
Issued by NWS Hastings, NE

Home | Current Version | Previous Version | Graphics & Text | Print | Product List | Glossary On
Versions: 1 2 3 4 5 6 7 8 9 10 11 12 13 14 15 16 17 18 19 20 21 22 23 24 25 26 27 28 29 30 31 32 33 34 35 36 37 38 39 40 41 42 43 44 45 46 47 48 49 50
000
AXUS43 KGID 011802
MISGRI

GID CWA HOURLY WEATHER ROUNDUP
NATIONAL WEATHER SERVICE HASTINGS NE
100 PM CDT TUE SEP 01 2015

NOTE: "FAIR" INDICATES FEW OR NO CLOUDS BELOW 12,000 FEET WITH NO
SIGNIFICANT WEATHER AND/OR OBSTRUCTIONS TO VISIBILITY.

...SOUTH CENTRAL NEBRASKA...

CITY           SKY/WX    TMP DP  RH WIND       PRES   REMARKS
GRAND ISLAND   SUNNY     87  63  44 S15       29.93F
HASTINGS       MOSUNNY   85  64  49 SW8       29.93F
KEARNEY        MOSUNNY   82  63  51 S10       29.93F
ORD            MOSUNNY   86  61  42 VRB3      29.89F
YORK           MOSUNNY   84  68  58 S8        29.93F
AURORA         MOSUNNY   85  65  50 SW10      29.93F
LEXINGTON      MOSUNNY   84  62  46 CALM      29.92F
HOLDREGE       MOSUNNY   82  59  45 S6        29.94F
HEBRON         SUNNY     88  62  41 S16       29.94F

...NEBRASKA PANHANDLE...

CITY           SKY/WX    TMP DP  RH WIND       PRES   REMARKS
CHADRON        SUNNY     90  46  21 W9        29.90F
ALLIANCE       SUNNY     89  43  20 VRB7      29.96F
SCOTTSBLUFF    SUNNY     85  50  29 W6        29.98F
SIDNEY         SUNNY     89  44  20 N9        30.01F

...WESTERN AND NORTH CENTRAL NEBRASKA...

CITY           SKY/WX    TMP DP  RH WIND       PRES   REMARKS
VALENTINE      MOSUNNY   85  63  47 VRB7      29.89F
AINSWORTH      PTSUNNY   81  66  59 SE15      29.91F
ONEILL         CLOUDY    76  71  83 S5        29.92S
BROKEN BOW     MOSUNNY   88  62  41 NE7       29.92F
IMPERIAL       SUNNY     86  54  33 VRB7      29.97F
NORTH PLATTE   MOSUNNY   85  62  46 NW9       29.93F
MCCOOK         SUNNY     87  60  40 W5        29.94F

...EASTERN NEBRASKA...

CITY           SKY/WX    TMP DP  RH WIND       PRES   REMARKS
NORFOLK        CLOUDY    80  66  62 SW13      29.91S
SO SIOUX CITY  PTSUNNY   83  68  60 MISG      29.90F
TEKAMAH        PTSUNNY   85  71  63 S10G17    29.92F HX  90
COLUMBUS       PTSUNNY   81  64  57 S7        29.92F
ALBION         PTSUNNY   80  65  60 S9        29.91F
OMAHA EPPLEY   PTSUNNY   85  69  58 S14       29.93F
OFFUTT AFB     PTSUNNY   84  72  65 S8        29.93F HX  90
MILLARD        PTSUNNY   85  71  63 S7        29.93F HX  90
LINCOLN        SUNNY     89  69  51 S12       29.93F HX  93
NEBRASKA CITY  PTSUNNY   85  65  51 S7        29.96F
BEATRICE       MOSUNNY   87  69  55 S13       29.95F HX  90
FALLS CITY     MOSUNNY   89  69  51 S14       29.96F HX  93

...NORTHERN KANSAS...

CITY           SKY/WX    TMP DP  RH WIND       PRES   REMARKS
GOODLAND       SUNNY     83  56  39 SW5       30.01F
HILL CITY      SUNNY     89  60  37 VRB6      29.94F
NORTON         CLEAR     88  61  40 CALM      29.92F
PHILLIPSBURG   SUNNY     90  63  40 CALM      29.92F HX  90
SMITH CENTER   SUNNY     88  61  40 S13G18    29.92F
HAYS           MOSUNNY   91  61  35 S20G25    29.92F HX  91
RUSSELL        SUNNY     92  59  33 S22G31    29.92F HX  91
CONCORDIA      MOSUNNY   90  65  43 S20       29.94F HX  92
SALINA         MOSUNNY   92  64  39 S18G25    29.95F HX  93
TOPEKA         SUNNY     88  67  49 S13       29.99F HX  91



USA.gov is the U.S. government's official web portal to all federal, state and local government web resources and services.